Regional Weather Roundup
Issued by NWS Cleveland, OH

Home | Current Version | Previous Version | Graphics & Text | Print | Product List | Glossary On
Versions: 1 2 3 4 5 6 7 8 9 10 11 12 13 14 15 16 17 18 19 20 21 22 23 24 25 26 27 28 29 30 31 32 33 34 35 36 37 38 39 40 41 42 43 44 45 46 47 48 49 50
000
ASUS41 KCLE 092112
RWRCLE
OHIO REGIONAL WEATHER ROUNDUP
NATIONAL WEATHER SERVICE WILMINGTON, OH
400 PM EST TUE FEB 09 2016

NOTE: "FAIR" INDICATES FEW OR NO CLOUDS BELOW 12,000 FEET WITH NO
SIGNIFICANT WEATHER AND/OR OBSTRUCTIONS TO VISIBILITY.

OHZ001>008-015>018-024>027-034-035-043-044-092200-
   NORTHWEST OHIO

CITY           SKY/WX    TMP DP  RH WIND       PRES   REMARKS
DEFIANCE       CLOUDY    30  19  63 NW13G24   29.69R WCI  20
FINDLAY        CLOUDY    29  23  78 W18       29.66R WCI  16
TOLEDO EXPRESS CLOUDY    28  20  71 W13G25    29.65R WCI  17
TOLEDO EXEC    CLOUDY    29  21  72 NW21      29.66R WCI  16
LIMA           CLOUDY    26  21  81 W16       29.68R WCI  14
$$

OHZ009>014-019>023-028>033-038-089-092200-
   NORTHEAST OHIO

CITY           SKY/WX    TMP DP  RH WIND       PRES   REMARKS
CLE-HOPKINS    LGT SNOW  30  25  81 W15       29.62R WCI  19
CLE-LAKEFRONT  CLOUDY    32  27  81 SW15      29.59R WCI  22
CUY CO. ARPT   LGT SNOW  32  28  86 W14       29.58R WCI  22
LORAIN-ELYRIA  LGT SNOW  30  25  81 W14       29.61R WCI  19
ASHTABULA      FLURRIES  31  26  82 W13       29.56R WCI  21
AKRON-CANTON   LGT SNOW  28  22  78 W13       29.60R WCI  17
WOOSTER        CLOUDY    28  22  78 W15       29.61R WCI  16
MANSFIELD      CLOUDY    26  23  88 SW12      29.61R WCI  16
YOUNGSTOWN     FLURRIES  30  24  78 W13       29.57R WCI  20
$$

OHZ042-051>053-060>062-070>072-077>081-092200-
  SOUTHWEST OHIO

CITY           SKY/WX    TMP DP  RH WIND       PRES   REMARKS
CINC-COVINGTON LGT SNOW  23  18  81 W15       29.79R WCI  10
CINC-LUNKEN    LGT SNOW  24  20  84 W9        29.82R FOG     WCI  14
HAMILTON       LGT SNOW  24  19  81 W9        29.81R WCI  14
DAYTON         FLURRIES  24  19  81 W18       29.73R WCI  10
WRIGHT-PAT AFB FLURRIES  24  18  77 W14       29.74R WCI  12
DAYTON GENERAL LGT SNOW  23  16  74 W14       29.74R WCI  11
WILMINGTON     LGT SNOW  22  17  81 W13       29.73R WCI  10
$$

OHZ036-037-039>041-045>050-054>059-063>069-073>076-082>088-092200-
  CENTRAL AND SOUTHEAST OHIO

CITY           SKY/WX    TMP DP  RH WIND       PRES   REMARKS
COLUMBUS       LGT SNOW  25  18  74 W13       29.70R WCI  14
OSU AIRPORT    LGT SNOW  25  20  81 W15       29.70R WCI  13
BOLTON FIELD   LGT SNOW  25  19  80 W12G21    29.71R WCI  14
RICKENBACK AFB FLURRIES  24  20  85 W14       29.72R WCI  12
NEWARK         CLOUDY    27  20  75 MISG      29.68R
MARION         CLOUDY    27  21  78 W12       29.66R HAZE    WCI  17
LANCASTER      CLOUDY    24  19  81 W15G21    29.72R WCI  11
ZANESVILLE     CLOUDY    27  20  75 W12G17    29.68R WCI  17
NEW PHILLY     CLOUDY    26  22  84 SW8       29.65R WCI  18
$$



USA.gov is the U.S. government's official web portal to all federal, state and local government web resources and services.